When you browse on this site, cookies collect data to enhance your experience and personalize the content and advertising you see.
Visit our Privacy Policy to learn more. By continuing to use the site, you agree to this use of cookies and data.
  • In Germany
  • List of Countries
  • For 7 days
  • Water Temperature
  • Weather Map
  • Weather Widgets
  • user-avatar
    Login

    Hourly Weather Visimo-Utkinsk

    Today, 20 October, Sunday

    Time Temperature Precipitation Wind Pressure Humidity
    00:00 -8°C° 0 mm 1 mps 747 mmHg 88%
    01:00 -8°C° 0 mm 1 mps 747 mmHg 89%
    02:00 -8°C° 0 mm 1 mps 747 mmHg 89%
    03:00 -8°C° 0 mm 1 mps 747 mmHg 88%
    04:00 -8°C° 0 mm 1 mps 747 mmHg 88%
    05:00 -9°C° 0 mm 2 mps 747 mmHg 88%
    06:00 -9°C° 0 mm 2 mps 747 mmHg 88%
    07:00 -9°C° 0 mm 2 mps 747 mmHg 88%
    08:00 -8°C° 0 mm 2 mps 747 mmHg 81%
    09:00 -6°C° 0 mm 2 mps 747 mmHg 74%
    10:00 -5°C° 0 mm 2 mps 747 mmHg 67%
    11:00 -4°C° 0 mm 3 mps 746 mmHg 66%
    12:00 -2°C° 0 mm 3 mps 746 mmHg 64%
    13:00 -1°C° 0 mm 3 mps 745 mmHg 63%
    14:00 -1°C° 0 mm 3 mps 745 mmHg 68%
    15:00 -2°C° 0 mm 3 mps 745 mmHg 74%
    16:00 -2°C° 0 mm 3 mps 745 mmHg 79%
    17:00 -2°C° 0 mm 3 mps 744 mmHg 81%
    18:00 -2°C° 0 mm 3 mps 744 mmHg 82%
    19:00 -4°C° 0 mm 4 mps 744 mmHg 83%
    20:00 -4°C° 0 mm 4 mps 743 mmHg 82%
    21:00 -3°C° 0 mm 4 mps 743 mmHg 81%
    22:00 -4°C° 0 mm 5 mps 743 mmHg 81%
    23:00 -4°C° 0 mm 5 mps 742 mmHg 83%

    Tomorrow, 21 October, Monday

    Time Temperature Precipitation Wind Pressure Humidity
    00:00 -2°C° 0 mm 5 mps 742 mmHg 85%
    01:00 -2°C° 0 mm 5 mps 742 mmHg 87%
    02:00 -2°C° 0.4 mm 5 mps 741 mmHg 88%
    03:00 -2°C° 0.4 mm 5 mps 741 mmHg 90%
    04:00 -2°C° 0.4 mm 5 mps 741 mmHg 92%
    05:00 -2°C° 0.2 mm 5 mps 740 mmHg 91%
    06:00 -1°C° 0.2 mm 5 mps 740 mmHg 91%
    07:00 -1°C° 0.2 mm 4 mps 740 mmHg 91%
    08:00 -1°C° 0.2 mm 4 mps 740 mmHg 91%
    09:00 -1°C° 0.2 mm 4 mps 740 mmHg 92%
    10:00 -1°C° 0.2 mm 4 mps 739 mmHg 92%
    11:00 -1°C° 0.3 mm 4 mps 739 mmHg 92%
    12:00 -1°C° 0.3 mm 4 mps 739 mmHg 93%
    13:00 -1°C° 0.3 mm 4 mps 739 mmHg 94%
    14:00 0°C° 0.1 mm 4 mps 738 mmHg 94%
    15:00 0°C° 0.1 mm 4 mps 738 mmHg 94%
    16:00 0°C° 0.1 mm 4 mps 738 mmHg 94%
    17:00 0°C° 0.1 mm 4 mps 738 mmHg 95%
    18:00 0°C° 0.1 mm 4 mps 737 mmHg 95%
    19:00 0°C° 0.1 mm 4 mps 737 mmHg 96%
    20:00 0°C° 0.3 mm 5 mps 736 mmHg 96%
    21:00 0°C° 0.3 mm 5 mps 735 mmHg 95%
    22:00 0°C° 0.3 mm 5 mps 734 mmHg 95%
    23:00 +1°C° 0.2 mm 6 mps 733 mmHg 94%

    Day after tomorrow, 22 October, Tuesday

    Time Temperature Precipitation Wind Pressure Humidity
    00:00 +2°C° 0.2 mm 6 mps 732 mmHg 93%
    01:00 +2°C° 0.2 mm 7 mps 731 mmHg 92%
    02:00 +2°C° 0.9 mm 7 mps 730 mmHg 91%
    03:00 +2°C° 0.9 mm 7 mps 730 mmHg 91%
    04:00 +2°C° 0.9 mm 7 mps 729 mmHg 91%
    05:00 +3°C° 0.8 mm 7 mps 728 mmHg 91%
    06:00 +3°C° 0.8 mm 7 mps 728 mmHg 91%
    07:00 +4°C° 0.8 mm 7 mps 727 mmHg 91%
    08:00 +3°C° 0.1 mm 7 mps 727 mmHg 89%
    09:00 +3°C° 0.1 mm 7 mps 727 mmHg 86%
    10:00 +3°C° 0.1 mm 7 mps 727 mmHg 84%
    11:00 +2°C° 0 mm 7 mps 728 mmHg 85%
    12:00 +2°C° 0 mm 6 mps 728 mmHg 86%
    13:00 +2°C° 0 mm 6 mps 729 mmHg 88%
    14:00 +1°C° 0 mm 6 mps 729 mmHg 89%
    15:00 +1°C° 0 mm 5 mps 730 mmHg 90%
    16:00 +1°C° 0 mm 5 mps 730 mmHg 92%
    17:00 +1°C° 0.1 mm 5 mps 731 mmHg 92%
    18:00 0°C° 0.1 mm 5 mps 731 mmHg 92%
    19:00 0°C° 0.1 mm 5 mps 732 mmHg 92%
    20:00 0°C° 0 mm 4 mps 732 mmHg 91%
    21:00 -1°C° 0 mm 4 mps 732 mmHg 91%
    22:00 -1°C° 0 mm 4 mps 733 mmHg 90%
    23:00 -1°C° 0 mm 4 mps 733 mmHg 90%

    23 October, Wednesday

    Time Temperature Precipitation Wind Pressure Humidity
    00:00 -2°C° 0 mm 4 mps 733 mmHg 90%
    01:00 -1°C° 0 mm 3 mps 734 mmHg 90%
    02:00 -2°C° 0 mm 3 mps 734 mmHg 89%
    03:00 -2°C° 0 mm 3 mps 735 mmHg 89%
    04:00 -4°C° 0 mm 3 mps 735 mmHg 89%
    05:00 -4°C° 0 mm 3 mps 735 mmHg 90%
    06:00 -5°C° 0 mm 3 mps 735 mmHg 91%
    07:00 -5°C° 0 mm 3 mps 736 mmHg 92%
    08:00 -5°C° 0 mm 3 mps 736 mmHg 89%
    09:00 -4°C° 0 mm 3 mps 736 mmHg 85%
    10:00 -4°C° 0 mm 3 mps 736 mmHg 81%
    11:00 -2°C° 0 mm 3 mps 736 mmHg 79%
    12:00 -2°C° 0 mm 3 mps 736 mmHg 78%
    13:00 -1°C° 0 mm 3 mps 736 mmHg 77%
    14:00 -1°C° 0 mm 3 mps 736 mmHg 77%
    15:00 -2°C° 0 mm 3 mps 735 mmHg 77%
    16:00 -2°C° 0 mm 3 mps 735 mmHg 78%
    17:00 -3°C° 0 mm 4 mps 735 mmHg 79%
    18:00 -3°C° 0 mm 4 mps 735 mmHg 81%
    19:00 -4°C° 0 mm 4 mps 735 mmHg 83%
    20:00 -4°C° 0 mm 5 mps 734 mmHg 82%
    21:00 -4°C° 0 mm 5 mps 734 mmHg 82%
    22:00 -4°C° 0 mm 5 mps 733 mmHg 82%
    23:00 -2°C° 0.1 mm 5 mps 733 mmHg 85%

    24 October, Thursday

    Time Temperature Precipitation Wind Pressure Humidity
    00:00 -2°C° 0.1 mm 6 mps 732 mmHg 87%
    01:00 -1°C° 0.1 mm 6 mps 732 mmHg 90%
    02:00 -1°C° 0.1 mm 6 mps 731 mmHg 91%
    03:00 0°C° 0.1 mm 5 mps 731 mmHg 92%
    04:00 +1°C° 0.1 mm 5 mps 731 mmHg 93%
    05:00 +1°C° 0.1 mm 5 mps 730 mmHg 93%
    06:00 +2°C° 0.1 mm 5 mps 730 mmHg 94%
    07:00 +2°C° 0.1 mm 6 mps 730 mmHg 94%
    08:00 +3°C° 0 mm 6 mps 730 mmHg 93%
    09:00 +3°C° 0 mm 6 mps 730 mmHg 92%
    10:00 +3°C° 0 mm 6 mps 730 mmHg 92%
    11:00 +3°C° 0 mm 5 mps 730 mmHg 92%
    12:00 +3°C° 0 mm 5 mps 730 mmHg 92%
    13:00 +3°C° 0 mm 5 mps 730 mmHg 92%
    14:00 +3°C° 0 mm 5 mps 730 mmHg 92%
    15:00 +3°C° 0 mm 5 mps 730 mmHg 92%
    16:00 +3°C° 0 mm 5 mps 730 mmHg 92%
    17:00 +4°C° 0 mm 4 mps 730 mmHg 93%
    18:00 +4°C° 0 mm 4 mps 731 mmHg 94%
    19:00 +4°C° 0 mm 3 mps 731 mmHg 95%
    20:00 +4°C° 0 mm 3 mps 731 mmHg 95%
    21:00 +3°C° 0 mm 3 mps 731 mmHg 95%
    22:00 +3°C° 0 mm 3 mps 732 mmHg 94%
    23:00 +3°C° 0 mm 3 mps 732 mmHg 95%

    25 October, Friday

    Time Temperature Precipitation Wind Pressure Humidity
    00:00 +3°C° 0 mm 3 mps 732 mmHg 95%
    01:00 +3°C° 0 mm 3 mps 732 mmHg 95%
    02:00 +2°C° 0 mm 3 mps 732 mmHg 95%
    03:00 +2°C° 0 mm 3 mps 733 mmHg 96%
    04:00 +2°C° 0 mm 3 mps 733 mmHg 96%
    05:00 +2°C° 0 mm 3 mps 733 mmHg 96%
    06:00 +2°C° 0 mm 3 mps 733 mmHg 96%
    07:00 +2°C° 0 mm 3 mps 733 mmHg 96%
    08:00 +2°C° 0 mm 3 mps 733 mmHg 93%
    09:00 +3°C° 0 mm 3 mps 733 mmHg 91%
    10:00 +4°C° 0 mm 3 mps 733 mmHg 89%
    11:00 +5°C° 0 mm 3 mps 733 mmHg 89%
    12:00 +5°C° 0 mm 4 mps 733 mmHg 89%
    13:00 +6°C° 0 mm 4 mps 733 mmHg 88%
    14:00 +6°C° 0 mm 4 mps 732 mmHg 89%
    15:00 +6°C° 0 mm 5 mps 732 mmHg 90%
    16:00 +6°C° 0 mm 5 mps 732 mmHg 91%
    17:00 +5°C° 0 mm 5 mps 732 mmHg 90%
    18:00 +5°C° 0 mm 5 mps 732 mmHg 88%
    19:00 +3°C° 0 mm 5 mps 732 mmHg 87%
    20:00 +3°C° 0 mm 5 mps 733 mmHg 88%
    21:00 +4°C° 0 mm 4 mps 733 mmHg 88%
    22:00 +3°C° 0 mm 4 mps 733 mmHg 89%
    23:00 +4°C° 0 mm 4 mps 733 mmHg 89%
    Show more